Location: Kapuskasing
(49.3803°N, 82.4001°W)
Time: 13:24:01
(UTC-05:00)

RS-44 - Pass Details

Date: 13 December 2025
Orbit: 1174 x 1511 km, 82.5° (Epoch: 21 January)

Event Time Altitude Azimuth Distance (km) Brightness Sun altitude
Exits shadow 01:21:35 12° 22° (NNE) 3,512 ? -61.4°
Drops below altitude 10° 01:21:59 10° 21° (NNE) 3,631 ? -61.4°
Sets 01:25:03 0° 14° (NNE) 4,583 ? -61.2°
